Weather History for Rogers, AR

Change the Weather History Date:

Wednesday, July 17, 2013

  Actual Average Record
Temperature  
Mean Temperature 81 °F -  
Max Temperature 91 °F 84 °F 98 °F (2006)
Min Temperature 71 °F 67 °F 62 °F (1998)
Cooling Degree Days 16    
Growing Degree Days 31 (Base 50)    
Moisture  
Dew Point 66 °F    
Average Humidity 62    
Maximum Humidity 93    
Minimum Humidity 34    
Precipitation  
Precipitation 0.00 in - - ()
Sea Level Pressure  
Sea Level Pressure 30.26 in    
Wind  
Wind Speed 5 mph (ESE)    
Max Wind Speed 10 mph    
Max Gust Speed -    
Visibility 10 miles    
Events      
Averages and records for this station are not official NWS values.
T = Trace of Precipitation, MM = Missing Value Source: NWS Daily Summary

Daily Weather History Graph

Daily Weather History Graph

Search for Another Location

Airport:

Trip Planner

Search our weather history database for the weather conditions in past years. The results will help you decide how hot, cold, wet, or windy it might be!

Date:

Astronomy

Jul. 17, 2013 Rise Set
Actual Time 6:11 AM CDT 8:33 PM CDT
Civil Twilight 5:42 AM CDT 9:02 PM CDT
Nautical Twilight 5:05 AM CDT 9:38 PM CDT
Astronomical Twilight 4:26 AM CDT 10:18 PM CDT
Moon 3:25 PM CDT (7/17) 1:16 AM CDT (7/17)
Length of Visible Light 15h 20m
Length of Day
14h 21m
Waxing Gibbous, 67% of the Moon is Illuminated
Jul 17
Waxing Gibbous
Jul 22
Full
Jul 29
Last Quarter
Aug 6
New
Aug 14
First Quarter

Hourly Weather History & Observations

Time (CDT) Temp. Heat Index Dew Point Humidity Pressure Visibility Wind Dir Wind Speed Gust Speed Precip Events Conditions
12:57 AM 73.9 °F - 70.0 °F 87% 30.28 in 10.0 mi East 4.6 mph - N/A   Clear
1:57 AM 72.0 °F - 69.1 °F 91% 30.29 in 10.0 mi ENE 4.6 mph - N/A   Clear
2:57 AM 72.0 °F - 69.1 °F 91% 30.28 in 10.0 mi East 4.6 mph - N/A   Clear
3:57 AM 72.0 °F - 70.0 °F 93% 30.28 in 10.0 mi East 3.5 mph - N/A   Clear
4:57 AM 71.1 °F - 69.1 °F 93% 30.28 in 10.0 mi Calm Calm - N/A   Clear
5:57 AM 71.1 °F - 69.1 °F 93% 30.30 in 10.0 mi East 4.6 mph - N/A   Clear
6:57 AM 72.0 °F - 70.0 °F 93% 30.31 in 10.0 mi ESE 4.6 mph - N/A   Clear
7:57 AM 75.0 °F - 70.0 °F 84% 30.32 in 10.0 mi ESE 6.9 mph - N/A   Clear
8:57 AM 79.0 °F - 70.0 °F 74% 30.32 in 10.0 mi East 6.9 mph - N/A   Clear
9:57 AM 82.9 °F 85.8 °F 68.0 °F 60% 30.32 in 10.0 mi Variable 5.8 mph - N/A   Clear
10:57 AM 84.9 °F 87.1 °F 66.0 °F 53% 30.32 in 10.0 mi Variable 5.8 mph - N/A   Scattered Clouds
11:57 AM 86.0 °F 88.2 °F 66.0 °F 51% 30.31 in 10.0 mi South 6.9 mph - N/A   Mostly Cloudy
12:57 PM 88.0 °F 90.3 °F 66.0 °F 48% 30.30 in 10.0 mi SW 6.9 mph - N/A   Mostly Cloudy
1:57 PM 90.0 °F 90.6 °F 63.0 °F 40% 30.29 in 10.0 mi SE 8.1 mph - N/A   Scattered Clouds
2:57 PM 91.9 °F 92.9 °F 63.0 °F 38% 30.25 in 10.0 mi ESE 8.1 mph - N/A   Clear
3:57 PM 91.9 °F 92.5 °F 62.1 °F 37% 30.24 in 10.0 mi ESE 8.1 mph - N/A   Clear
4:57 PM 91.9 °F 91.5 °F 60.1 °F 34% 30.21 in 10.0 mi ESE 10.4 mph - N/A   Clear
5:57 PM 91.0 °F 90.5 °F 60.1 °F 35% 30.20 in 10.0 mi Variable 5.8 mph - N/A   Mostly Cloudy
6:57 PM 91.0 °F 90.2 °F 59.0 °F 34% 30.19 in 10.0 mi Variable 3.5 mph - N/A   Partly Cloudy
7:57 PM 89.1 °F 89.0 °F 61.0 °F 39% 30.19 in 10.0 mi East 3.5 mph - N/A   Clear
8:57 PM 84.9 °F 85.9 °F 63.0 °F 48% 30.19 in 10.0 mi SSE 6.9 mph - N/A   Clear
9:57 PM 82.9 °F 84.0 °F 63.0 °F 51% 30.21 in 10.0 mi Calm Calm - N/A   Clear
10:57 PM 80.1 °F 81.7 °F 64.0 °F 58% 30.22 in 10.0 mi Calm Calm - N/A   Clear
11:57 PM 77.0 °F - 64.0 °F 64% 30.22 in 10.0 mi East 3.5 mph - N/A   Clear